Tracking 27111 objects as of 29-Mar-2023
HD Live streaming from Space Station
objects crossing your sky now

FLOCK 4Y 13

Track FLOCK 4Y 13 now!
10-day predictions
FLOCK 4Y 13 is classified as:


NORAD ID: 55079
Int'l Code: 2023-001BY
Perigee: 515.1 km
Apogee: 534.4 km
Inclination: 97.5 °
Period: 95.0 minutes
Semi major axis: 6895 km
RCS: Unknown
Launch date: January 3, 2023
Source: United States (US)
Launch site: AIR FORCE EASTERN TEST RANGE (AFETR)
Your satellite tracking list
Your tracking list is empty




NASA's NSSDC Master Catalog

Two Line Element Set (TLE):
1 55079U 23001BY  23087.18017126  .00010873  00000-0  56608-3 0  9995
2 55079  97.4889 148.0797 0013946 292.7327  67.2432 15.16110894 12805
Source of the keplerian elements: AFSPC